This is the latest recevied weather packets stored in our database for station/object OE3PDB-3. If no packets are shown the sender has not sent any weather packets the latest 10 day(s).
| Time | Temp. | Humidity | Pressure | Rain* | Wind** | Luminosity | Snow |
|---|---|---|---|---|---|---|---|
| 1777726848 | 26.11° C | 28% | 1021.4 hPa | 0 mm | - | - | - |
| 1777726248 | 25° C | 30% | 1021.4 hPa | 0 mm | - | - | - |
| 1777725648 | 25° C | 30% | 1021.7 hPa | 0 mm | - | - | - |
| 1777725048 | 24.44° C | 31% | 1021.8 hPa | 0 mm | - | - | - |
| 1777724448 | 23.89° C | 32% | 1021.9 hPa | 0 mm | - | - | - |
| 1777723848 | 23.33° C | 32% | 1022 hPa | 0 mm | - | - | - |
| 1777723249 | 22.22° C | 32% | 1022.4 hPa | 0 mm | - | - | - |
| 1777722649 | 21.67° C | 34% | 1022.4 hPa | 0 mm | - | - | - |
| 1777722048 | 21.11° C | 33% | 1022.5 hPa | 0 mm | - | - | - |
| 1777721449 | 20.56° C | 34% | 1022.6 hPa | 0 mm | - | - | - |
| 1777720849 | 20° C | 35% | 1022.7 hPa | 0 mm | - | - | - |
| 1777720249 | 20° C | 35% | 1022.8 hPa | 0 mm | - | - | - |
| 1777719649 | 20° C | 35% | 1022.7 hPa | 0 mm | - | - | - |
| 1777719049 | 20° C | 35% | 1023.1 hPa | 0 mm | - | - | - |
| 1777718449 | 19.44° C | 35% | 1023.1 hPa | 0 mm | - | - | - |
| 1777717849 | 19.44° C | 35% | 1023.3 hPa | 0 mm | - | - | - |
| 1777717249 | 20° C | 35% | 1023.3 hPa | 0 mm | - | - | - |
| 1777716649 | 20° C | 37% | 1023.4 hPa | 0 mm | - | - | - |
| 1777716049 | 20° C | 37% | 1023.5 hPa | 0 mm | - | - | - |
| 1777715449 | 20° C | 36% | 1023.8 hPa | 0 mm | - | - | - |
| 1777714849 | 20.56° C | 37% | 1023.9 hPa | 0 mm | - | - | - |
| 1777714249 | 20.56° C | 39% | 1023.9 hPa | 0 mm | - | - | - |
| 1777713649 | 21.11° C | 39% | 1024 hPa | 0 mm | - | - | - |
| 1777713049 | 21.11° C | 39% | 1024 hPa | 0 mm | - | - | - |
| 1777712449 | 21.11° C | 39% | 1024.2 hPa | 0 mm | - | - | - |
* Rain latest hour (hover to see other rain measurements)
** Current wind speed in m/s (hover to see current wind gust speed)